Regional Weather Roundup
Issued by NWS

Home | Current Version | Previous Version | Text Only | Print | Product List | Glossary Off
Versions: 1 2 3 4 5 6 7 8 9 10 11 12 13 14 15 16 17 18 19 20 21 22 23 24 25 26 27 28 29 30 31 32 33 34 35 36 37 38 39 40 41 42 43 44 45 46 47 48 49 50

000
ASUS43 KLOT 122006
RWRIL

ILLINOIS REGIONAL WEATHER ROUNDUP
NATIONAL WEATHER SERVICE CHICAGO/ROMEOVILLE IL
300 PM CDT SAT JUL 12 2014

NOTE: "FAIR" INDICATES FEW OR NO CLOUDS BELOW 12,000 FEET WITH NO
SIGNIFICANT WEATHER AND/OR OBSTRUCTIONS TO VISIBILITY.

* THESE STATIONS ARE NOT UNDER NWS QUALITY CONTROL. THEY ALSO MAY NOT
  REPORT WEATHER SUCH AS PRECIPITATION OR FOG.

ILZ001-002-007-009-015-016-024-122100-
NORTHWEST ILLINOIS

CITY           SKY/WX    TMP DP  RH WIND       PRES   REMARKS
MOLINE         PTSUNNY   85  76  74 S8        29.96F HX  94
STERLING*      CLOUDY    81  73  78 SW3       29.99F HX  85
SAVANNA*       CLOUDY    81  72  74 SE8       29.98F HX  85
$$

ILZ003-004-008-010-011-017-018-122100-
NORTH CENTRAL ILLINOIS

CITY           SKY/WX    TMP DP  RH WIND       PRES   REMARKS
ROCKFORD       CLOUDY    79  70  74 SW12      30.00F HX  82
FREEPORT*      CLOUDY    76  72  86 S12       30.01F
ROCHELLE*      CLOUDY    79  70  74 S12       30.01F HX  81
DE KALB*       CLOUDY    76  70  83 S13       30.02F
PERU*          CLOUDY    80  74  82 S9        30.01F HX  85
$$

ILZ005-006-012>014-019>023-122100-
NORTHEAST ILLINOIS

CITY           SKY/WX    TMP DP  RH WIND       PRES   REMARKS
CHICAGO-OHARE  CLOUDY    78  67  68 SW20G29   29.99F HX  80
CHICAGO-MIDWAY CLOUDY    78  70  76 SW12G25   29.99F HX  80
AURORA         CLOUDY    78  71  79 SW13      30.01F HX  80
LANSING*       CLOUDY    75  67  77 SW12G18   30.01F
JOLIET*        CLOUDY    76  70  80 S7        30.01F
WAUKEGAN       CLOUDY    77  69  76 SW13G20   29.97S
DUPAGE AIRPORT CLOUDY    77  70  79 SW16      30.01F
KANKAKEE*      CLOUDY    77  73  86 S8        30.03F
WHEELING       CLOUDY    79  69  71 SW13      30.00S HX  81
MORRIS*        CLOUDY    78  73  84 SW9       30.01F HX  80
ROMEOVILLE*    CLOUDY    76  70  82 SW9       30.01F
NORTHERLY ISL    N/A     77  68  73 S8          N/A
$$

LMZ740>746-122100-
SOUTHERN LAKE MICHIGAN

STATION/POSITION SKY/WX   TEMP    WIND        PRES    VSBY  WAVE
                          AIR SEA DIR/SP/G                  HT/PER
                          (F)     (DEG/KT/KT) (MB)    (MI)  (FT/S)
SOUTHERN BUOY              64 61  170/ 10/ 10 1015.5R         2/ 4
WAUKEGAN HARBOR            77     240/ 15/ 26 1015.9R
HARRISON CRIB              75     210/ 22/ 27   N/A
BURNHAM HARBOR             77     210/  9/ 18   N/A
CALUMET HARBOR             76     210/ 12/ 20 1016.5F
MICHIGAN CITY              75     190/ 13/ 17   N/A
$$

ILZ025>027-034>036-040-047-049-050-058-095>099-122100-
WEST-CENTRAL ILLINOIS

CITY           SKY/WX    TMP DP  RH WIND       PRES   REMARKS
QUINCY         PTSUNNY   87  73  62 S10       30.02F HX  94
GALESBURG*     PTSUNNY   85  76  73 S12       29.98F HX  95
MACOMB*        PTSUNNY   86  74  67 SW10      30.01F HX  95
JACKSONVILLE*  PTSUNNY   89  75  63 SW14      30.05S HX  99
PITTSFIELD*    PTSUNNY   90  72  56 S7        30.05F HX  97
$$

ILZ028>032-037-038-041>044-048-051>054-059>061-122100-
CENTRAL ILLINOIS

CITY           SKY/WX    TMP DP  RH WIND       PRES   REMARKS
PONTIAC        CLOUDY    79  75  89 S9        30.02F HX  82
BLOOMINGTON    CLOUDY    78  73  84 S15       30.05F HX  80
DECATUR        PTSUNNY   84  76  76 S13       30.06F HX  93
PEORIA         CLOUDY    87  75  67 S14       29.99F HX  96
LACON*         CLOUDY    83  75  76 S14       29.98F HX  90
LINCOLN*       CLOUDY    88  76  66 S13       29.99F HX  98
SPRINGFIELD    MOSUNNY   88  73  61 SW8       30.03F HX  95
TAYLORVILLE    MOSUNNY   86  75  70 S12       30.05F HX  95
$$

ILZ033-039-045-046-055>057-062-063-122100-
EAST-CENTRAL ILLINOIS

CITY           SKY/WX    TMP DP  RH WIND       PRES   REMARKS
CHAMPAIGN      CLOUDY    77  74  90 S12       30.07F
RANTOUL*       CLOUDY    77  71  81 S13       30.07F
MATTOON        CLOUDY    81  74  79 S8        30.08F HX  86
PARIS*         CLOUDY    78  73  84 S9        30.09F HX  80
$$

ILZ079-100>102-122100-
SOUTHWEST ILLINOIS

CITY           SKY/WX    TMP DP  RH WIND       PRES   REMARKS
CAHOKIA*       SUNNY     93  72  50 VRB6      30.05F HX 101
SPARTA*        PTSUNNY   88  72  58 S3        30.09S HX  94
$$

ILZ064>066-069>071-074>076-080>082-084>086-088>090-092>094-122100-
SOUTH-CENTRAL ILLINOIS

CITY           SKY/WX    TMP DP  RH WIND       PRES   REMARKS
CARBONDALE     MOSUNNY   91  74  57 SW12      30.08F HX 100
CAIRO*         PTSUNNY   92  74  55 S8        30.11S HX 102
MT. VERNON     MOSUNNY   93  73  52 SE6       30.09F HX 102
CENTRALIA*     SUNNY     95  69  42 S9        30.08F HX 100
SALEM*         MOSUNNY   92  72  52 SW9       30.08F HX 100
METROPOLIS*    PTSUNNY   89  69  51 S7        30.11F HX  92
$$

ILZ067-068-072-073-078-083-087-091-122100-
SOUTHEAST ILLINOIS

CITY           SKY/WX    TMP DP  RH WIND       PRES   REMARKS
FLORA*         CLOUDY    86  74  66 S12       30.09F HX  94
HARRISBURG*    MOSUNNY   88  74  63 SE7       30.12F HX  96
ROBINSON*      CLOUDY    87  75  67 S10       30.11F HX  95
CARMI*         MOSUNNY   87  76  70 SE13      30.10F HX  98
$$

ABBREVIATIONS USED IN REMARKS
   TC - TEMPERATURE IN CELSIUS
  WCI - WIND CHILL INDEX
   HX - HEAT INDEX
  VSB - VISIBILITY
$$




USA.gov is the U.S. government's official web portal to all federal, state and local government web resources and services.